Voltar ao catálogo

STARLINK-3095

AtivoComunicaçõesVLEO
NORAD 49160·PAYLOAD·🇺🇸 United States

Lançado Sep 14, 2021 de Vandenberg Space Force Base

Loading…

Próximas Passagens (próximas 24 horas)

TLE

AtualizadoSource: CelesTrak SupGP

Época: Sep 15, 2026, 01:29 UTC

1 49160C 21082AG  26258.06229167 -.00012334  00000+0 -10337-2 0  2587
2 49160  70.0020 176.9620 0003121 272.7313  21.8439 14.98335205    12

Acompanhe STARLINK-3095 em tempo real com AllMySat

Download on the App Store